When you browse on this site, cookies collect data to enhance your experience and personalize the content and advertising you see.
Visit our Privacy Policy to learn more. By continuing to use the site, you agree to this use of cookies and data.
  • Em Portugal
  • Lista de países
  • Para 7 dias
  • Temperatura da água
  • Mapas de satélite
  • Mapa do tempo
  • Widgets de tempo
  • user-avatar
    Iniciar Sessão

    Previsão horária em Lakun

    Hoje, 26 Junho, Quarta-feira

    Tempo Temperatura Precipitação Vento Pressão Humidade
    00:00 +16°C° 0 mm 1 m/s 635 mmHg 61%
    01:00 +16°C° 0 mm 1 m/s 634 mmHg 61%
    02:00 +16°C° 0 mm 1 m/s 634 mmHg 61%
    03:00 +16°C° 0 mm 1 m/s 634 mmHg 61%
    04:00 +18°C° 0 mm 1 m/s 635 mmHg 60%
    05:00 +19°C° 0 mm 1 m/s 636 mmHg 59%
    06:00 +21°C° 0 mm 1 m/s 636 mmHg 59%
    07:00 +22°C° 0 mm 1 m/s 637 mmHg 56%
    08:00 +23°C° 0 mm 1 m/s 637 mmHg 53%
    09:00 +25°C° 0 mm 2 m/s 638 mmHg 50%
    10:00 +25°C° 0.3 mm 2 m/s 638 mmHg 52%
    11:00 +25°C° 0.3 mm 2 m/s 638 mmHg 54%
    12:00 +26°C° 0.3 mm 3 m/s 638 mmHg 56%
    13:00 +25°C° 0.9 mm 3 m/s 638 mmHg 58%
    14:00 +25°C° 0.9 mm 3 m/s 637 mmHg 60%
    15:00 +25°C° 0.9 mm 2 m/s 637 mmHg 62%
    16:00 +24°C° 0.6 mm 2 m/s 637 mmHg 66%
    17:00 +23°C° 0.6 mm 2 m/s 636 mmHg 70%
    18:00 +21°C° 0.6 mm 2 m/s 636 mmHg 74%
    19:00 +21°C° 0.2 mm 1 m/s 636 mmHg 77%
    20:00 +19°C° 0.2 mm 1 m/s 635 mmHg 80%
    21:00 +16°C° 0.2 mm 0 m/s 635 mmHg 83%
    22:00 +15°C° 0.1 mm 0 m/s 634 mmHg 85%
    23:00 +15°C° 0.1 mm 0 m/s 634 mmHg 87%

    Amanhã, 27 Junho, Quinta-feira

    Tempo Temperatura Precipitação Vento Pressão Humidade
    00:00 +14°C° 0.1 mm 0 m/s 634 mmHg 89%
    01:00 +15°C° 0 mm 1 m/s 634 mmHg 86%
    02:00 +15°C° 0 mm 1 m/s 633 mmHg 83%
    03:00 +15°C° 0 mm 1 m/s 633 mmHg 81%
    04:00 +16°C° 0 mm 1 m/s 634 mmHg 78%
    05:00 +18°C° 0 mm 1 m/s 634 mmHg 75%
    06:00 +19°C° 0 mm 1 m/s 635 mmHg 72%
    07:00 +20°C° 0.2 mm 1 m/s 635 mmHg 71%
    08:00 +20°C° 0.2 mm 2 m/s 635 mmHg 70%
    09:00 +21°C° 0.2 mm 2 m/s 636 mmHg 69%
    10:00 +21°C° 0.8 mm 2 m/s 635 mmHg 73%
    11:00 +21°C° 0.8 mm 2 m/s 635 mmHg 77%
    12:00 +21°C° 0.8 mm 2 m/s 634 mmHg 81%
    13:00 +21°C° 0.8 mm 2 m/s 634 mmHg 80%
    14:00 +21°C° 0.8 mm 2 m/s 634 mmHg 79%
    15:00 +21°C° 0.8 mm 2 m/s 633 mmHg 78%
    16:00 +21°C° 0.4 mm 1 m/s 633 mmHg 79%
    17:00 +21°C° 0.4 mm 1 m/s 633 mmHg 81%
    18:00 +20°C° 0.4 mm 1 m/s 632 mmHg 82%
    19:00 +19°C° 0.1 mm 1 m/s 632 mmHg 84%
    20:00 +18°C° 0.1 mm 1 m/s 632 mmHg 86%
    21:00 +16°C° 0.1 mm 1 m/s 631 mmHg 88%
    22:00 +16°C° 0 mm 1 m/s 631 mmHg 87%
    23:00 +15°C° 0 mm 1 m/s 631 mmHg 87%

    Depois de amanhã, 28 Junho, Sexta-feira

    Tempo Temperatura Precipitação Vento Pressão Humidade
    00:00 +15°C° 0 mm 1 m/s 630 mmHg 86%
    01:00 +15°C° 0 mm 1 m/s 630 mmHg 85%
    02:00 +15°C° 0 mm 1 m/s 630 mmHg 84%
    03:00 +15°C° 0 mm 1 m/s 629 mmHg 82%
    04:00 +16°C° 0 mm 1 m/s 630 mmHg 81%
    05:00 +18°C° 0 mm 1 m/s 630 mmHg 80%
    06:00 +19°C° 0 mm 1 m/s 630 mmHg 79%
    07:00 +20°C° 0 mm 1 m/s 630 mmHg 73%
    08:00 +22°C° 0 mm 1 m/s 631 mmHg 67%
    09:00 +23°C° 0 mm 1 m/s 631 mmHg 61%
    10:00 +23°C° 0.5 mm 2 m/s 631 mmHg 63%
    11:00 +24°C° 0.5 mm 2 m/s 630 mmHg 65%
    12:00 +24°C° 0.5 mm 2 m/s 630 mmHg 67%
    13:00 +24°C° 1.1 mm 2 m/s 630 mmHg 66%
    14:00 +24°C° 1.1 mm 2 m/s 630 mmHg 65%
    15:00 +24°C° 1.1 mm 2 m/s 629 mmHg 63%
    16:00 +23°C° 0.5 mm 2 m/s 629 mmHg 67%
    17:00 +23°C° 0.5 mm 2 m/s 628 mmHg 70%
    18:00 +22°C° 0.5 mm 1 m/s 628 mmHg 74%
    19:00 +20°C° 0 mm 2 m/s 628 mmHg 76%
    20:00 +18°C° 0 mm 2 m/s 627 mmHg 78%
    21:00 +17°C° 0 mm 2 m/s 627 mmHg 80%
    22:00 +17°C° 0 mm 2 m/s 627 mmHg 79%
    23:00 +17°C° 0 mm 2 m/s 627 mmHg 79%

    29 Junho, Sábado

    Tempo Temperatura Precipitação Vento Pressão Humidade
    00:00 +17°C° 0 mm 2 m/s 627 mmHg 79%
    01:00 +17°C° 0 mm 2 m/s 627 mmHg 78%
    02:00 +17°C° 0 mm 2 m/s 627 mmHg 77%
    03:00 +18°C° 0 mm 1 m/s 627 mmHg 76%
    04:00 +19°C° 0 mm 1 m/s 627 mmHg 76%
    05:00 +19°C° 0 mm 1 m/s 627 mmHg 76%
    06:00 +19°C° 0 mm 1 m/s 627 mmHg 76%
    07:00 +21°C° 0.1 mm 1 m/s 628 mmHg 72%
    08:00 +21°C° 0.1 mm 2 m/s 628 mmHg 68%
    09:00 +23°C° 0.1 mm 2 m/s 629 mmHg 65%
    10:00 +23°C° 0.9 mm 2 m/s 629 mmHg 67%
    11:00 +22°C° 0.9 mm 3 m/s 629 mmHg 69%
    12:00 +22°C° 0.9 mm 3 m/s 629 mmHg 71%
    13:00 +22°C° 1.6 mm 3 m/s 628 mmHg 73%
    14:00 +23°C° 1.6 mm 2 m/s 628 mmHg 75%
    15:00 +21°C° 1.6 mm 2 m/s 628 mmHg 77%
    16:00 +21°C° 1.3 mm 2 m/s 628 mmHg 79%
    17:00 +20°C° 1.3 mm 2 m/s 628 mmHg 81%
    18:00 +21°C° 1.3 mm 1 m/s 628 mmHg 83%
    19:00 +20°C° 0.8 mm 1 m/s 628 mmHg 87%
    20:00 +19°C° 0.8 mm 1 m/s 629 mmHg 92%
    21:00 +18°C° 0.8 mm 1 m/s 629 mmHg 96%
    22:00 +18°C° 3.9 mm 1 m/s 629 mmHg 95%
    23:00 +16°C° 3.9 mm 1 m/s 629 mmHg 95%

    30 Junho, Domingo

    Tempo Temperatura Precipitação Vento Pressão Humidade
    00:00 +16°C° 3.9 mm 1 m/s 629 mmHg 95%
    01:00 +16°C° 0.4 mm 1 m/s 629 mmHg 94%
    02:00 +15°C° 0.4 mm 1 m/s 629 mmHg 94%
    03:00 +14°C° 0.4 mm 0 m/s 629 mmHg 93%
    04:00 +15°C° 0 mm 1 m/s 629 mmHg 93%
    05:00 +16°C° 0 mm 1 m/s 629 mmHg 92%
    06:00 +16°C° 0 mm 1 m/s 629 mmHg 91%
    07:00 +18°C° 0.1 mm 1 m/s 630 mmHg 89%
    08:00 +17°C° 0.1 mm 2 m/s 630 mmHg 87%
    09:00 +18°C° 0.1 mm 2 m/s 630 mmHg 85%
    10:00 +18°C° 0.3 mm 3 m/s 630 mmHg 84%
    11:00 +19°C° 0.3 mm 3 m/s 630 mmHg 84%
    12:00 +19°C° 0.3 mm 3 m/s 630 mmHg 84%
    13:00 +19°C° 0.5 mm 3 m/s 630 mmHg 84%
    14:00 +19°C° 0.5 mm 3 m/s 630 mmHg 84%
    15:00 +19°C° 0.5 mm 2 m/s 630 mmHg 85%
    16:00 +18°C° 0.4 mm 2 m/s 630 mmHg 87%
    17:00 +18°C° 0.4 mm 2 m/s 630 mmHg 89%
    18:00 +19°C° 0.4 mm 1 m/s 630 mmHg 91%
    19:00 +17°C° 0.3 mm 2 m/s 630 mmHg 93%
    20:00 +16°C° 0.3 mm 2 m/s 630 mmHg 95%
    21:00 +15°C° 0.3 mm 2 m/s 630 mmHg 97%
    22:00 +15°C° 1.5 mm 2 m/s 631 mmHg 97%
    23:00 +15°C° 1.5 mm 2 m/s 631 mmHg 98%

    1 Julho, Segunda-feira

    Tempo Temperatura Precipitação Vento Pressão Humidade
    00:00 +15°C° 1.5 mm 2 m/s 631 mmHg 98%
    01:00 +15°C° 2.7 mm 2 m/s 631 mmHg 98%
    02:00 +14°C° 2.7 mm 2 m/s 630 mmHg 98%
    03:00 +14°C° 2.7 mm 2 m/s 630 mmHg 98%
    04:00 +14°C° 2 mm 2 m/s 630 mmHg 98%
    05:00 +13°C° 2 mm 2 m/s 630 mmHg 98%
    06:00 +13°C° 2 mm 2 m/s 630 mmHg 98%
    07:00 +13°C° 2.3 mm 2 m/s 630 mmHg 98%
    08:00 +13°C° 2.3 mm 2 m/s 630 mmHg 98%
    09:00 +12°C° 2.3 mm 3 m/s 630 mmHg 98%
    10:00 +12°C° 2.6 mm 3 m/s 631 mmHg 98%
    11:00 +12°C° 2.6 mm 3 m/s 631 mmHg 98%
    12:00 +12°C° 2.6 mm 3 m/s 631 mmHg 98%
    13:00 +13°C° 1.5 mm 2 m/s 631 mmHg 98%
    14:00 +13°C° 1.5 mm 2 m/s 631 mmHg 97%
    15:00 +13°C° 1.5 mm 2 m/s 631 mmHg 97%
    16:00 +13°C° 1.7 mm 2 m/s 631 mmHg 98%
    17:00 +12°C° 1.7 mm 2 m/s 631 mmHg 98%
    18:00 +12°C° 1.7 mm 2 m/s 631 mmHg 98%
    19:00 +12°C° 3.6 mm 1 m/s 631 mmHg 98%
    20:00 +11°C° 3.6 mm 1 m/s 631 mmHg 98%
    21:00 +11°C° 3.6 mm 1 m/s 631 mmHg 98%
    22:00 +11°C° 4.1 mm 1 m/s 631 mmHg 98%
    23:00 +10°C° 4.1 mm 1 m/s 631 mmHg 97%
    Mostrar mais